This demonstration page uses our WeatherBlox Daily Observations layout. Learn more.

Left ArrowRight Arrow

39.12711, -84.51439

Hourly Observations for June 14, 2021

Temp ( °F °C ) Dew Point ( °F °C ) Humidity (%) Winds ( mph kmh ) Pressure ( in mb ) Visibility ( mi km ) Precip ( " mm )
12:53 am 00:53 Clear 66 18.9 61 16.1 84 84 N N/A 29.91 1013 10 16 N/A
1:53 am 01:53 Clear 65 18.3 61 16.1 87 87 N N/A 29.91 1013 10 16 N/A
2:53 am 02:53 Clear 63 17.2 60 15.6 90 90 N N/A 29.91 1013 10 16 N/A
3:53 am 03:53 Clear 62 16.7 60 15.6 93 93 N N/A 29.90 1012 9 14 N/A
4:15 am 04:15 Clear with Mist and Fog 61 16.1 59 15 93 93 N N/A 29.91 1013 2 2 N/A
4:26 am 04:26 Clear with Mist and Fog 61 16.1 59 15 93 93 N N/A 29.91 1013 4 6 N/A
4:40 am 04:40 Clear with Mist and Fog 60 15.6 58 14.4 93 93 N N/A 29.91 1013 1 2 N/A
4:48 am 04:48 Clear with Mist and Fog 61 16 57 14 88 88 N N/A 29.91 1013 1 1 N/A
4:51 am 04:51 Clear with Mist and Fog 61 16 59 15 94 94 N N/A 29.91 1013 3 4 N/A
4:53 am 04:53 Clear with Mist and Fog 60 15.6 59 15 96 96 N N/A 29.90 1012 5 8 N/A
5:18 am 05:18 Clear with Mist and Fog 60 15.6 59 15 96 96 N N/A 29.92 1013 2 3 N/A
5:38 am 05:38 Clear with Mist and Fog 59 15 58 14.4 96 96 N N/A 29.92 1013 1 1 N/A
5:44 am 05:44 Clear with Mist and Fog 61 16.1 59 15 93 93 N N/A 29.93 1013 2 3 N/A
5:53 am 05:53 Clear with Mist and Fog 60 15.6 58 14.4 93 93 N N/A 29.91 1013 5 8 N/A
6:00 am 06:00 Clear with Mist and Fog 60 15.6 59 15 96 96 N N/A 29.92 1013 2 3 N/A
6:21 am 06:21 Sunny 59 15 57 13.9 93 93 N N/A 29.92 1013 10 16 N/A
6:53 am 06:53 Sunny with Fog 60 15.6 59 15 96 96 N N/A 29.91 1013 10 16 N/A
7:53 am 07:53 Sunny 65 18.3 63 17.2 93 93 SSW 3 6 29.90 1012 10 16 N/A
8:53 am 08:53 Sunny 72 22.2 64 17.8 76 76 N N/A 29.91 1013 10 16 N/A
9:53 am 09:53 Sunny 76 24.4 63 17.2 64 64 N N/A 29.90 1013 10 16 N/A
10:53 am 10:53 Sunny 83 28.3 58 14.4 43 43 W 8 13 29.88 1012 10 16 N/A
11:53 am 11:53 Sunny 83 28.3 60 15.6 46 46 SW 13 20 29.88 1012 10 16 N/A
12:53 pm 12:53 Sunny 86 30 61 16.1 43 43 WSW 15 24 29.85 1011 10 16 N/A
1:53 pm 13:53 Sunny 88 31.1 61 16.1 40 40 W 10 17 29.84 1011 10 16 N/A
2:53 pm 14:53 Sunny 89 31.7 59 15 36 36 W 15 24 29.82 1010 10 16 N/A
3:53 pm 15:53 Sunny 90 32.2 59 15 35 35 NW 18 30 29.80 1009 10 16 N/A
4:53 pm 16:53 Sunny 89 31.7 53 11.7 29 29 N 16 26 29.80 1009 10 16 N/A
5:00 pm 17:00 Sunny 89 31.7 51 10.6 27 27 NNW 16 26 29.78 1008 10 16 N/A
5:53 pm 17:53 Sunny 88 31.1 48 8.9 25 25 NNW 16 26 29.80 1009 10 16 N/A
6:53 pm 18:53 Sunny 86 30 53 11.7 32 32 N 15 24 29.80 1009 10 16 N/A
7:00 pm 19:00 Sunny 85 29.4 52 11.1 32 32 NNW 15 24 29.79 1009 10 16 N/A
7:53 pm 19:53 Sunny 82 27.8 57 13.9 42 42 NNE 13 20 29.83 1010 10 16 N/A
8:53 pm 20:53 Sunny 78 25.6 53 11.7 42 42 N 9 15 29.85 1011 10 16 N/A
9:53 pm 21:53 Clear 77 25 52 11.1 42 42 NNW 8 13 29.88 1012 10 16 N/A
10:53 pm 22:53 Clear 75 23.9 50 10 41 41 N 10 17 29.91 1013 10 16 N/A
11:53 pm 23:53 Clear 73 22.8 50 10 44 44 N 12 19 29.93 1014 10 16 N/A

Powered by AerisWeather